Find Starlink 6144

NORAD ID: 56894 Int'l Des: 2023-083 Owner: SPXS Country: US Constellation: starlink operational
LEOCIRCULAR

現在のビュー

3D地球を読み込み中...

About Starlink 6144

Starlink 6144 (NORAD 56894) is a starlink constellation satellite (v1.5) launched Jun 12, 2023 by SPXS of US. It operates in LEO, CIRCULAR orbit with a mass of 305.00 kg.

次回通過

Passes for default location (London). Set your location on the main map for personalized predictions.

高度履歴

Loading altitude history...

軌道要素

1 56894U 23083U 26262.77953492 -.00000880 00000-0 -22456-4 0 9993
2 56894 43.0032 72.5097 0001288 267.7821 92.2884 15.27569851181392
Epoch: Sep 19, 2026 • Age: 34 hours

現在のステータス

高度 493.8 km
遠地点 / 近地点 N/A
速度 7.62 km/s
衛星直下点 -38.77°S, 68.73°W
打ち上げ日 Jun 12, 2023
運用期間 3.2 years
タイプ internet

技術仕様

分類 Payload
質量 305.00 kg
乾燥質量 290.00 kg
長さ 0.20 m
スパン 9.00 m
形状 ? Box + pan
製造者 SPXS
バスタイプ Starlink
フェーズステータス In Orbit
所有者/国 SPXS/US

Most Searched